Latest Weather Observations for Swan Hill

IDN60801

Issued at 5:02 pm EST Saturday 4 July 2015 (issued every 30 minutes, with the page automatically refreshed every 10 minutes)

About weather observations | Map of weather stations | Latest weather observations for NSW | Other Formats
Station Details ID: 077094 Name: SWAN HILL AERODROME Lat: -35.38 Lon: 143.54 Height: 71.0 m
Data from the previous 72 hours. | See also: Recent months at Swan Hill
Date/Time
EST
Temp
°C
App
Temp
°C
Dew
Point
Rel
Hum
%
Delta-T
°C
Wind Press
QNH
hPa
Press
MSL
hPa
Rain
since 9 am
mm
Dir
 
Spd
km/h
Gust
km/h
Spd
kts
Gust
kts
04/04:30pm 12.6 9.2 1.9 48 4.6 NW 9 13 5 7 1022.9 1023.0 0.0
04/04:00pm 12.8 9.4 2.1 48 4.6 W 9 13 5 7 1023.0 1023.1 0.0
04/03:30pm 12.7 10.2 1.4 46 4.8 W 4 9 2 5 1023.0 1023.1 0.0
04/03:00pm 12.4 9.0 2.0 49 4.5 W 9 11 5 6 1023.0 1023.1 0.0
04/02:30pm 12.0 8.5 1.3 48 4.5 WNW 9 13 5 7 1023.1 1023.2 0.0
04/02:00pm 11.8 7.6 1.4 49 4.4 W 13 20 7 11 1023.5 1023.6 0.0
04/01:30pm 12.6 8.3 1.3 46 4.8 NW 13 20 7 11 1023.8 1023.9 0.0
04/01:00pm 12.0 7.7 1.3 48 4.5 NW 13 17 7 9 1024.2 1024.3 0.0
04/12:30pm 11.8 7.5 1.2 48 4.5 WNW 13 19 7 10 1024.6 1024.7 0.0
04/12:00pm 11.6 7.0 1.3 49 4.3 NW 15 19 8 10 1025.1 1025.2 0.0
04/11:30am 11.1 6.4 1.1 50 4.2 NW 15 19 8 10 1025.5 1025.6 0.0
04/11:00am 11.2 6.1 0.9 49 4.3 NW 17 22 9 12 1025.9 1026.0 0.0
04/10:30am 10.3 5.6 1.2 53 3.8 NW 15 19 8 10 1026.2 1026.4 0.0
04/10:00am 8.9 3.8 0.9 57 3.2 NNW 17 19 9 10 1026.1 1026.3 0.0
04/09:30am 7.2 2.9 1.3 66 2.4 NW 13 17 7 9 1025.9 1026.0 0.0
04/09:00am 5.3 2.4 1.2 75 1.6 WSW 6 7 3 4 1025.9 1026.0 0.0
04/08:30am 3.3 1.1 0.9 84 0.9 WSW 2 6 1 3 1025.8 1025.9 0.0
04/08:00am 2.3 -0.4 0.2 86 0.8 WSW 4 6 2 3 1025.5 1025.6 0.0
04/07:30am 2.3 -0.8 0.2 86 0.8 WSW 6 7 3 4 1025.2 1025.3 0.0
04/07:00am 2.6 -0.7 0.3 85 0.9 WSW 7 7 4 4 1025.0 1025.1 0.0
04/06:30am 3.0 -0.1 0.4 83 1.0 WSW 6 6 3 3 1024.9 1025.0 0.0
04/06:00am 3.2 0.2 0.8 84 0.9 WSW 6 7 3 4 1024.6 1024.7 0.0
04/05:30am 2.9 -0.1 0.6 85 0.9 WSW 6 7 3 4 1024.4 1024.5 0.0
04/05:00am 2.6 -0.7 0.3 85 0.9 WSW 7 7 4 4 1024.6 1024.7 0.0
04/04:30am 2.3 -0.4 0.0 85 0.9 WSW 4 7 2 4 1024.7 1024.8 0.0
04/04:00am 2.1 0.1 0.2 87 0.7 CALM 0 0 0 0 1024.9 1025.0 0.0
04/03:30am 1.7 -1.4 -0.1 88 0.7 WSW 6 6 3 3 1024.9 1025.0 0.0
04/03:00am 1.2 -1.6 -0.6 88 0.6 WSW 4 7 2 4 1025.2 1025.3 0.0
04/02:30am 1.6 -0.8 -0.3 87 0.7 WSW 2 6 1 3 1025.2 1025.3 0.0
04/02:00am 1.7 -1.6 0.1 89 0.6 WSW 7 9 4 5 1025.2 1025.3 0.0
04/01:30am 1.3 -1.2 -1.3 83 0.9 WSW 2 7 1 4 1025.2 1025.3 0.0
04/01:00am 1.6 -0.5 -1.1 82 1.0 CALM 0 0 0 0 1025.6 1025.7 0.0
04/12:30am 2.1 0.0 -0.8 81 1.0 CALM 0 0 0 0 1026.1 1026.3 0.0
04/12:00am 2.7 0.7 -0.4 80 1.1 CALM 0 0 0 0 1026.3 1026.5 0.0
 
Date/Time
EST
Temp
°C
App
Temp
°C
Dew
Point
Rel
Hum
%
Delta-T
°C
Wind Press
QNH
hPa
Press
MSL
hPa
Rain
since 9 am
mm
Dir
 
Spd
km/h
Gust
km/h
Spd
kts
Gust
kts
03/11:30pm 3.4 0.3 0.1 79 1.2 WSW 6 7 3 4 1026.2 1026.4 0.0
03/11:00pm 3.6 0.4 -0.6 74 1.5 WSW 6 6 3 3 1026.4 1026.6 0.0
03/10:30pm 4.0 0.8 -0.2 74 1.6 WSW 6 7 3 4 1026.6 1026.8 0.0
03/10:00pm 4.2 1.4 -0.2 73 1.6 WSW 4 9 2 5 1026.8 1027.0 0.0
03/09:30pm 4.8 2.8 0.0 71 1.8 CALM 0 0 0 0 1027.1 1027.3 0.0
03/09:00pm 5.0 2.8 -1.2 64 2.3 CALM 0 0 0 0 1026.8 1027.0 0.0
03/08:30pm 5.2 3.0 -1.3 63 2.4 CALM 0 0 0 0 1027.0 1027.2 0.0
03/08:00pm 5.5 3.3 -1.2 62 2.5 CALM 0 0 0 0 1027.0 1027.2 0.0
03/07:30pm 5.8 2.6 -0.7 63 2.5 WSW 6 7 3 4 1026.9 1027.1 0.0
03/07:00pm 6.2 2.3 -1.2 59 2.8 WSW 9 9 5 5 1027.0 1027.2 0.0
03/06:30pm 6.8 2.9 -1.3 56 3.0 WSW 9 11 5 6 1026.9 1027.1 0.0
03/06:00pm 6.9 2.4 -0.5 59 2.8 WSW 13 13 7 7 1027.0 1027.2 0.0
03/05:30pm 7.7 3.7 0.2 59 3.0 WSW 11 11 6 6 1026.8 1027.0 0.0
03/05:00pm 9.9 6.3 0.8 53 3.7 WSW 9 9 5 5 1026.7 1026.9 0.0
03/04:30pm 10.2 6.6 0.5 51 4.0 WSW 9 9 5 5 1026.9 1027.1 0.0
03/04:00pm 10.9 6.8 -0.2 46 4.5 WSW 11 13 6 7 1026.9 1027.1 0.0
03/03:30pm 12.0 8.7 -0.2 43 5.0 WNW 7 13 4 7 1026.9 1027.1 0.0
03/03:00pm 11.9 7.5 0.1 44 4.8 W 13 19 7 10 1026.8 1027.0 0.0
03/02:30pm 12.2 7.8 0.3 44 4.9 W 13 20 7 11 1026.9 1027.1 0.0
03/02:00pm 11.9 7.1 0.1 44 4.8 WSW 15 19 8 10 1027.3 1027.5 0.0
03/01:30pm 11.8 8.2 0.3 45 4.8 WNW 9 17 5 9 1027.7 1027.9 0.0
03/01:00pm 11.3 7.2 0.1 46 4.6 W 11 20 6 11 1028.1 1028.3 0.0
03/12:30pm 10.8 7.8 0.5 49 4.2 S 6 11 3 6 1028.7 1028.9 0.0
03/12:00pm 11.0 8.2 1.8 53 3.9 SSE 6 11 3 6 1029.0 1029.2 0.0
03/11:30am 10.0 7.2 1.9 57 3.4 SSE 6 9 3 5 1029.3 1029.5 0.0
03/11:00am 9.6 6.7 2.7 62 2.9 SSE 7 11 4 6 1029.6 1029.8 0.0
03/10:30am 8.3 5.5 2.1 65 2.6 SSE 6 7 3 4 1029.9 1030.1 0.0
03/10:00am 8.1 6.5 2.6 68 2.3 CALM 0 0 0 0 1029.9 1030.1 0.0
03/09:30am 4.8 2.7 1.5 79 1.3 SSE 2 7 1 4 1029.9 1030.1 0.0
03/09:00am 2.3 0.3 0.2 86 0.8 CALM 0 0 0 0 1030.0 1030.2 0.0
03/08:30am -0.1 -2.3 -1.5 90 0.5 CALM 0 0 0 0 1029.9 1030.1 0.0
03/08:00am -1.9 -4.3 -3.3 90 0.4 CALM 0 0 0 0 1029.8 1030.0 0.0
03/07:30am -2.2 -4.6 -3.5 91 0.3 CALM 0 0 0 0 1029.5 1029.7 0.0
03/07:00am -1.9 -4.3 -3.2 91 0.3 CALM 0 0 0 0 1029.1 1029.3 0.0
03/06:30am -1.9 -4.3 -3.2 91 0.3 CALM 0 0 0 0 1029.1 1029.3 0.0
03/06:00am -1.6 -5.3 -3.2 89 0.5 SSE 7 7 4 4 1029.1 1029.3 0.0
03/05:30am -1.7 -4.1 -3.4 88 0.5 CALM 0 0 0 0 1029.1 1029.3 0.0
03/05:00am -1.7 -4.9 -3.6 87 0.5 SSE 4 7 2 4 1028.9 1029.1 0.0
03/04:30am -1.4 -3.8 -3.1 88 0.5 CALM 0 0 0 0 1028.6 1028.8 0.0
03/04:00am -0.9 -3.2 -2.5 89 0.5 CALM 0 0 0 0 1028.8 1029.0 0.0
03/03:30am -0.5 -2.8 -2.1 89 0.5 CALM 0 0 0 0 1028.8 1029.0 0.0
03/03:00am -0.8 -3.1 -2.5 88 0.5 CALM 0 0 0 0 1029.2 1029.4 0.0
03/02:30am -1.1 -3.5 -3.1 86 0.6 CALM 0 0 0 0 1029.4 1029.6 0.0
03/02:00am -0.3 -2.6 -2.5 85 0.7 CALM 0 0 0 0 1029.1 1029.3 0.0
03/01:30am 0.8 -2.6 -1.8 83 0.9 SSE 6 6 3 3 1028.9 1029.1 0.0
03/01:00am 1.6 -1.9 -1.5 80 1.1 SSE 7 9 4 5 1029.0 1029.2 0.0
03/12:30am 2.3 -1.6 -1.5 76 1.4 SSE 9 11 5 6 1029.1 1029.3 0.0
03/12:00am 3.7 -0.5 -0.7 73 1.6 SSE 11 13 6 7 1029.3 1029.5 0.0
 
Date/Time
EST
Temp
°C
App
Temp
°C
Dew
Point
Rel
Hum
%
Delta-T
°C
Wind Press
QNH
hPa
Press
MSL
hPa
Rain
since 9 am
mm
Dir
 
Spd
km/h
Gust
km/h
Spd
kts
Gust
kts
02/11:30pm 3.9 0.1 -0.9 71 1.8 SSE 9 13 5 7 1029.4 1029.6 0.0
02/11:00pm 4.2 0.4 -0.6 71 1.8 SSE 9 11 5 6 1029.4 1029.6 0.0
02/10:30pm 4.5 0.7 -0.7 69 1.9 SSE 9 13 5 7 1029.2 1029.4 0.0
02/10:00pm 4.7 0.9 -0.7 68 2.0 S 9 13 5 7 1029.5 1029.7 0.0
02/09:30pm 5.4 1.6 -0.6 65 2.3 S 9 15 5 8 1029.5 1029.7 0.0
02/09:00pm 5.8 1.6 -0.9 62 2.5 S 11 15 6 8 1029.2 1029.4 0.0
02/08:30pm 5.4 1.6 -1.1 63 2.4 S 9 13 5 7 1029.1 1029.3 0.0
02/08:00pm 5.3 2.0 -1.4 62 2.5 SSW 6 7 3 4 1028.7 1028.9 0.0
02/07:30pm 6.9 3.1 -1.0 57 3.0 SSW 9 11 5 6 1028.6 1028.8 0.0
02/07:00pm 7.2 3.0 -1.2 55 3.2 S 11 15 6 8 1028.2 1028.4 0.0
02/06:30pm 7.7 3.4 -1.5 52 3.5 S 11 15 6 8 1027.7 1027.9 0.0
02/06:00pm 8.9 4.6 -1.5 48 4.0 SSW 11 15 6 8 1027.5 1027.7 0.0
02/05:30pm 10.1 5.5 -1.3 45 4.5 S 13 19 7 10 1027.4 1027.6 0.0
02/05:00pm 11.6 6.9 -1.5 40 5.1 S 13 22 7 12 1027.1 1027.3 0.0
02/04:30pm 12.6 6.7 -0.6 40 5.4 SSW 20 32 11 17 1026.9 1027.1 0.0
02/04:00pm 12.6 5.6 -0.6 40 5.4 SW 26 35 14 19 1026.7 1026.9 0.0
02/03:30pm 12.8 7.3 2.1 48 4.7 SSW 20 33 11 18 1026.2 1026.4 0.0
02/03:00pm 13.1 7.7 2.4 48 4.7 S 20 33 11 18 1025.8 1025.9 0.0
02/02:30pm 14.2 7.6 1.8 43 5.4 SSW 26 39 14 21 1025.5 1025.6 0.0
02/02:00pm 13.4 6.7 1.4 44 5.1 SSW 26 41 14 22 1025.2 1025.3 0.0
02/01:30pm 14.2 6.7 1.5 42 5.5 SSW 30 43 16 23 1025.3 1025.4 0.0
02/01:00pm 13.5 5.8 0.2 40 5.5 SSW 30 50 16 27 1025.4 1025.5 0.0
02/12:57pm 14.1 6.9 0.4 39 5.8 SSW 28 50 15 27 1025.3 1025.4 0.0
02/12:30pm 14.4 6.6 2.6 45 5.3 SSW 33 46 18 25 1025.4 1025.5 0.0
02/12:00pm 13.8 6.2 2.7 47 4.9 SW 32 44 17 24 1025.3 1025.4 0.0
02/11:49am 13.6 6.0 3.1 49 4.7 SW 32 50 17 27 1025.3 1025.4 0.0
02/11:30am 13.3 5.9 4.2 54 4.2 SW 32 48 17 26 1025.5 1025.6 0.0
02/11:00am 13.0 6.3 5.4 60 3.5 SW 30 41 16 22 1025.7 1025.8 0.0
02/10:30am 12.3 6.0 5.9 65 3.0 SW 28 41 15 22 1025.7 1025.8 0.0
02/10:00am 11.1 5.0 6.5 73 2.2 WSW 28 37 15 20 1025.7 1025.8 0.0
02/09:30am 10.4 5.0 6.5 77 1.8 WSW 24 30 13 16 1025.4 1025.5 0.0
02/09:00am 8.6 3.3 5.0 78 1.6 W 22 30 12 16 1025.0 1025.1 0.0
02/08:30am 8.2 2.4 4.4 77 1.7 W 24 32 13 17 1025.1 1025.2 0.0
02/08:00am 8.3 1.5 3.0 69 2.2 W 28 35 15 19 1024.8 1024.9 0.0
02/07:30am 8.0 2.6 2.7 69 2.2 W 20 28 11 15 1024.5 1024.6 0.0
02/07:00am 7.3 1.1 2.0 69 2.2 WNW 24 32 13 17 1024.0 1024.1 0.0
02/06:30am 6.9 1.4 2.0 71 2.0 WNW 20 26 11 14 1023.7 1023.8 0.0
02/06:00am 6.9 1.0 1.8 70 2.1 WNW 22 28 12 15 1023.6 1023.7 0.0
02/05:30am 6.5 1.2 1.8 72 1.9 WNW 19 24 10 13 1023.5 1023.6 0.0
02/05:00am 5.7 0.7 1.4 74 1.7 NW 17 20 9 11 1023.7 1023.8 0.0
02/04:30am 5.9 0.5 1.4 73 1.8 WNW 19 22 10 12 1023.7 1023.8 0.0
02/04:00am 6.9 1.4 1.6 69 2.1 WNW 20 24 11 13 1024.0 1024.1 0.0
02/03:30am 7.5 1.6 1.8 67 2.3 WNW 22 28 12 15 1024.3 1024.4 0.0
02/03:00am 7.6 2.1 1.9 67 2.3 WNW 20 26 11 14 1024.7 1024.8 0.0
02/02:30am 7.6 2.1 1.7 66 2.4 WNW 20 24 11 13 1024.6 1024.7 0.0
02/02:00am 7.2 2.3 1.9 69 2.2 NW 17 20 9 11 1024.7 1024.8 0.0
02/01:30am 7.2 2.3 1.7 68 2.2 NW 17 22 9 12 1024.9 1025.0 0.0
02/01:00am 7.6 2.1 1.7 66 2.4 NW 20 24 11 13 1025.2 1025.3 0.0
02/12:30am 8.1 3.2 1.9 65 2.6 NW 17 20 9 11 1025.7 1025.8 0.0
02/12:00am 8.3 3.4 1.9 64 2.6 NW 17 20 9 11 1025.7 1025.8 0.0
 
Date/Time
EST
Temp
°C
App
Temp
°C
Dew
Point
Rel
Hum
%
Delta-T
°C
Wind Press
QNH
hPa
Press
MSL
hPa
Rain
since 9 am
mm
Dir
 
Spd
km/h
Gust
km/h
Spd
kts
Gust
kts
01/11:30pm 8.5 3.6 2.1 64 2.7 NW 17 20 9 11 1026.0 1026.2 0.0
01/11:00pm 8.4 3.1 2.0 64 2.6 NW 19 24 10 13 1026.1 1026.3 0.0
01/10:30pm 8.5 3.5 1.6 62 2.8 NW 17 22 9 12 1026.2 1026.4 0.0
01/10:00pm 8.0 3.4 1.8 65 2.5 NW 15 20 8 11 1026.3 1026.5 0.0
01/09:30pm 7.4 2.5 1.7 67 2.3 NW 17 20 9 11 1026.4 1026.6 0.0
01/09:00pm 6.5 1.9 1.6 71 2.0 NNW 15 19 8 10 1026.5 1026.7 0.0
01/08:30pm 6.2 1.6 1.7 73 1.8 NNW 15 17 8 9 1026.5 1026.7 0.0
01/08:00pm 6.1 1.9 1.8 74 1.7 NNW 13 13 7 7 1026.8 1027.0 0.0
01/07:30pm 6.3 2.4 1.2 70 2.0 NNW 11 13 6 7 1026.3 1026.5 0.0
01/07:00pm 6.6 2.0 1.3 69 2.1 NNW 15 17 8 9 1026.2 1026.4 0.0
01/06:30pm 7.0 3.0 0.7 64 2.5 NNW 11 13 6 7 1026.1 1026.3 0.0
01/06:00pm 8.5 4.3 1.4 61 2.9 NNW 13 15 7 8 1026.0 1026.2 0.0
01/05:30pm 10.6 6.4 1.7 54 3.8 WNW 13 15 7 8 1026.0 1026.2 0.0

Other Formats:

Comma delimited format used in spreadsheet applications
http://www.bom.gov.au/fwo/IDN60801/IDN60801.94843.axf

JavaScript Object Notation format (JSON) in row-major order
http://www.bom.gov.au/fwo/IDN60801/IDN60801.94843.json